Location: Góry Miechowskie
(50.3599°N, 20.1803°E)
Time: 22:14:31
(UTC+00:00)

S-56A Canister/Altair - Pass Details

Date: 22 September 2024
Orbit: 636 x 2487 km, 38.9° (Epoch: 09 October)

Event Time Altitude Azimuth Distance (km) Brightness Sun altitude
Rises 17:39:24 0° 251° (WSW) 3,112 11.7 -10.8°
Reaches altitude 10° 17:41:49 10° 239° (WSW) 2,325 10.7 -11.1°
Maximum altitude 17:46:21 28° 181° (S) 1,694 9.2 -11.8°
Enters shadow 17:51:27 13° 130° (SE) 2,853 9.9 -12.6°
Drops below altitude 10° 17:52:19 10° 126° (SE) 3,133 - -12.8°
Sets 17:56:10 0° 116° (ESE) 4,436 - -13.4°
